Harlingen, TX

4:19 AM CDT on June 24, 2017 (GMT -0500)
Valley International

Weather History for KHRL - January, 2013

Change the Weather History Date:

Friday, January 25, 2013

  Actual Average Record
Temperature  
Mean Temperature 69 °F 61 °F  
Max Temperature 83 °F 71 °F 88 °F (2012)
Min Temperature 55 °F 50 °F 22 °F (1929)
Degree Days  
Heating Degree Days 0 6  
Month to date heating degree days 176 166  
Since 1 July heating degree days 289 414  
Cooling Degree Days 4 2  
Month to date cooling degree days 26 46  
Year to date cooling degree days 26 46  
Growing Degree Days 18 (Base 50)    
Moisture  
Dew Point 60 °F    
Average Humidity 74    
Maximum Humidity 100    
Minimum Humidity 47    
Precipitation  
Precipitation 0.01 in 0.05 in 1.46 in (1984)
Month to date precipitation 2.56 0.80  
Year to date precipitation 2.56 0.80  
Sea Level Pressure  
Sea Level Pressure 30.10 in    
Wind  
Wind Speed 13 mph (SSE)    
Max Wind Speed 25 mph    
Max Gust Speed 32 mph    
Visibility 9 miles    
Events      
T = Trace of Precipitation, MM = Missing Value Source: NWS Daily Summary

Daily Weather History Graph

Daily Weather History Graph

Search for Another Location

Airport or City:

Trip Planner

Search our weather history database for the weather conditions in past years. The results will help you decide how hot, cold, wet, or windy it might be!

Date:

Astronomy

Jan. 25, 2013 Rise Set
Actual Time 7:17 AM CST 6:08 PM CST
Civil Twilight 6:53 AM CST 6:33 PM CST
Nautical Twilight 6:25 AM CST 7:00 PM CST
Astronomical Twilight 5:57 AM CST 7:28 PM CST
Moon 5:06 PM CST (1/25) 5:57 AM CST (1/25)
Length of Visible Light 11h 39m
Length of Day
10h 50m
Waxing Gibbous, 98% of the Moon is Illuminated
Jan 25
Waxing Gibbous
Jan 26
Full
Feb 3
Last Quarter
Feb 10
New
Feb 17
First Quarter

Hourly Weather History & Observations

Time (CST) Temp. Heat Index Dew Point Humidity Pressure Visibility Wind Dir Wind Speed Gust Speed Precip Events Conditions
12:52 AM 62.1 °F - 60.1 °F 93% 30.17 in 10.0 mi South 6.9 mph - N/A   Clear
1:52 AM 57.9 °F - 57.0 °F 97% 30.17 in 9.0 mi SSE 4.6 mph - N/A   Clear
2:52 AM 57.9 °F - 57.0 °F 97% 30.14 in 7.0 mi SE 8.1 mph - N/A   Clear
3:52 AM 57.0 °F - 57.0 °F 100% 30.12 in 7.0 mi SSE 3.5 mph - N/A   Clear
4:37 AM 55.4 °F - 55.4 °F 100% 30.12 in 0.8 mi SSE 3.5 mph - N/A   Clear
4:52 AM 55.0 °F - 54.0 °F 96% 30.12 in 2.5 mi SE 5.8 mph - N/A   Clear
4:59 AM 55.4 °F - 55.4 °F 100% 30.11 in 8.0 mi SE 4.6 mph - N/A   Clear
5:52 AM 59.0 °F - 57.9 °F 96% 30.11 in 8.0 mi ESE 6.9 mph - 0.01 in   Clear
6:52 AM 57.0 °F - 55.9 °F 96% 30.12 in 5.0 mi SE 6.9 mph - N/A   Clear
7:52 AM 61.0 °F - 60.1 °F 97% 30.12 in 7.0 mi SE 9.2 mph - N/A   Clear
8:52 AM 66.9 °F - 64.0 °F 90% 30.13 in 10.0 mi SSE 12.7 mph - N/A   Clear
9:52 AM 73.9 °F - 64.9 °F 73% 30.14 in 10.0 mi South 20.7 mph 28.8 mph N/A   Clear
10:52 AM 78.1 °F - 64.0 °F 62% 30.14 in 10.0 mi South 25.3 mph 29.9 mph N/A   Partly Cloudy
11:40 AM 80.6 °F 82.3 °F 64.4 °F 58% 30.13 in 10.0 mi South 24.2 mph 29.9 mph N/A   Clear
11:52 AM 80.1 °F 81.5 °F 63.0 °F 56% 30.12 in 10.0 mi South 23.0 mph 28.8 mph N/A   Clear
12:20 PM 80.6 °F 81.8 °F 62.6 °F 54% 30.11 in 10.0 mi South 23.0 mph 29.9 mph N/A   Clear
12:52 PM 82.0 °F 83.0 °F 62.1 °F 51% 30.09 in 10.0 mi South 18.4 mph 32.2 mph N/A   Clear
1:52 PM 82.0 °F 83.0 °F 62.1 °F 51% 30.06 in 10.0 mi South 19.6 mph 28.8 mph N/A   Clear
2:52 PM 82.9 °F 83.3 °F 61.0 °F 47% 30.04 in 10.0 mi South 20.7 mph 27.6 mph N/A   Clear
3:52 PM 81.0 °F 81.7 °F 61.0 °F 50% 30.02 in 10.0 mi South 20.7 mph 27.6 mph N/A   Clear
4:52 PM 78.1 °F - 60.1 °F 54% 30.03 in 10.0 mi South 20.7 mph 26.5 mph N/A   Clear
5:52 PM 73.9 °F - 60.1 °F 62% 30.04 in 10.0 mi South 17.3 mph - N/A   Clear
6:52 PM 71.1 °F - 62.1 °F 73% 30.06 in 10.0 mi SSE 13.8 mph - N/A   Clear
7:52 PM 69.1 °F - 62.1 °F 78% 30.07 in 10.0 mi SSE 11.5 mph - N/A   Clear
8:52 PM 66.0 °F - 62.1 °F 87% 30.08 in 10.0 mi SE 9.2 mph - N/A   Clear
9:52 PM 64.9 °F - 61.0 °F 87% 30.09 in 10.0 mi SE 6.9 mph - N/A   Clear
10:52 PM 63.0 °F - 61.0 °F 93% 30.10 in 10.0 mi SSE 8.1 mph - N/A   Clear
11:52 PM 66.0 °F - 63.0 °F 90% 30.09 in 10.0 mi SSE 11.5 mph - N/A   Clear